Location: Unspecified
(42.9300°N, 71.1866°W)
Time: 20:23:14
(UTC-05:00)

Envisat - Visible Passes

Search period start: 11 February 2016 00:00
Search period end: 21 February 2016 00:00
Orbit: 765 x 766 km, 98.3° (Epoch: 11 February)

Date Brightness Start Highest point End Pass type
(mag) Time Alt. Az. Time Alt. Az. Time Alt. Az.
11 Feb 5.5 20:01:00 10° N 20:01:00 10° N 20:01:06 10° N visible
13 Feb 5.6 20:26:45 11° N 20:26:45 11° N 20:26:59 10° N visible
14 Feb 5.3 19:49:31 12° N 19:49:31 12° N 19:50:00 10° N visible
15 Feb 5.3 19:12:17 10° NNE 19:12:17 10° NNE 19:12:24 10° NNE visible
15 Feb 5.8 20:52:29 11° NNW 20:52:29 11° NNW 20:52:39 10° NNW visible
16 Feb 5.3 20:15:15 14° N 20:15:15 14° N 20:15:59 10° N visible
17 Feb 5.1 19:38:01 14° NNE 19:38:01 14° NNE 19:38:51 10° N visible
18 Feb 5.2 19:00:47 10° NNE 19:00:47 10° NNE 19:00:55 10° NNE visible
18 Feb 5.5 20:40:58 14° NNW 20:40:58 14° NNW 20:41:44 10° NNW visible
19 Feb 5.1 20:03:45 17° N 20:03:45 17° N 20:04:56 10° N visible
20 Feb 5.0 19:26:31 15° NNE 19:26:31 15° NNE 19:27:38 10° NNE visible
20 Feb 5.7 21:06:43 13° NNW 21:06:43 13° NNW 21:07:16 10° NNW visible
